Regional Weather Roundup
Issued by NWS Charleston, WV

Home | Current Version | Previous Version | Graphics & Text | Print | Product List | Glossary On
Versions: 1 2 3 4 5 6 7 8 9 10 11 12 13 14 15 16 17 18 19 20 21 22 23 24 25 26 27 28 29 30 31 32 33 34 35 36 37 38 39 40 41 42 43 44 45 46 47 48 49 50
000
ASUS41 KRLX 191810
RWRRLX
West Virginia Regional Weather Roundup
National Weather Service Charleston WV
200 PM EDT SUN OCT 19 2014

Note: "fair" indicates few or no clouds below 12,000 feet with no
significant weather and/or obstructions to visibility.

WVZ003-191900-
Northern Panhandle of West Virginia

CITY           SKY/WX    TMP DP  RH WIND       PRES   REMARKS
WHEELING       PTSUNNY   51  32  48 NW7       30.16F
$$

WVZ009-191900-
Northwest West Virginia

CITY           SKY/WX    TMP DP  RH WIND       PRES   REMARKS
PARKERSBURG    PTSUNNY   54  35  48 NW7       30.21F
$$

WVZ006-191900-
Western West Virginia

CITY           SKY/WX    TMP DP  RH WIND       PRES   REMARKS
HUNTINGTON     MOSUNNY   56  37  49 VRB3      30.19F
$$

WVZ015-191900-
West Central West Virginia

CITY           SKY/WX    TMP DP  RH WIND       PRES   REMARKS
CHARLESTON     MOSUNNY   54  35  48 NW8       30.19F
$$

WVZ022-031-191900-
North Central West Virginia

CITY           SKY/WX    TMP DP  RH WIND       PRES   REMARKS
CLARKSBURG     MOSUNNY   52  35  52 W8G18     30.16F
MORGANTOWN     MOSUNNY   54  30  40 VRB7      30.15F
$$

WVZ025-035-042-045-191900-
Southern West Virginia

CITY           SKY/WX    TMP DP  RH WIND       PRES   REMARKS
BECKLEY        MOSUNNY   49  34  56 W9        30.17F
LOGAN            N/A     54  37  54 VRB5      30.18F
BLUEFIELD      MOSUNNY   51  35  54 W8        30.17F
LEWISBURG      SUNNY     52  32  46 NW6       30.15F
$$

WVZ047-191900-
Northern Mountains of West Virginia

CITY           SKY/WX    TMP DP  RH WIND       PRES   REMARKS
ELKINS         PTSUNNY   49  35  58 MISG      30.15F
$$

WVZ052-191900-
Eastern Panhandle of West Virginia

CITY           SKY/WX    TMP DP  RH WIND       PRES   REMARKS
MARTINSBURG    SUNNY     57  29  34 NW10G18   30.07F
PETERSBURG     SUNNY    N/A N/A N/A W7        30.10F
$$



USA.gov is the U.S. government's official web portal to all federal, state and local government web resources and services.